Location: Melbourne
(37.8170°S, 144.9670°E)
Time: 18:03:20
(UTC+10:00)

deb Explorer IX - All Passes

Search period start: 29 August 2014 00:00
Search period end: 08 September 2014 00:00
Orbit: 559 x 1218 km, 38.8° (Epoch: 25 August)

Date Brightness Start Highest point End Pass type
(mag) Time Alt. Az. Time Alt. Az. Time Alt. Az.
29 Aug - 13:51:13 10° NW 13:56:01 38° NNE 14:01:42 10° E daylight
29 Aug - 15:38:31 10° WNW 15:44:17 87° NNE 15:51:17 10° E daylight
29 Aug - 17:26:50 10° W 17:33:17 85° S 17:40:53 10° E daylight
29 Aug - 19:15:20 10° W 19:22:17 62° NNW 19:30:02 10° NE visible
29 Aug - 21:04:48 10° W 21:10:45 26° NW 21:16:57 10° NNE visible
30 Aug - 12:05:06 10° NNE 12:06:18 11° NE 12:07:32 10° ENE daylight
30 Aug - 13:48:45 10° NW 13:53:38 46° NNE 13:59:29 10° E daylight
30 Aug - 15:36:21 10° W 15:42:03 88° S 15:48:58 10° E daylight
30 Aug - 17:24:39 10° W 17:31:02 88° S 17:38:34 10° E daylight
30 Aug - 19:13:09 10° W 19:19:55 54° NNW 19:27:29 10° NE visible
30 Aug - 21:03:05 10° W 21:08:15 20° NW 21:13:39 10° N visible
31 Aug - 12:01:09 10° N 12:03:47 15° NE 12:06:38 10° ENE daylight
31 Aug - 13:46:23 10° NW 13:51:18 55° NNE 13:57:14 10° E daylight
31 Aug - 15:34:11 10° W 15:39:49 84° S 15:46:40 10° E daylight
31 Aug - 17:22:28 10° W 17:28:46 86° NNW 17:36:14 10° ENE daylight
31 Aug - 19:11:00 10° W 19:17:32 45° NNW 19:24:50 10° NE visible
31 Aug - 21:01:42 10° WNW 21:05:44 15° NW 21:09:55 10° N visible
01 Sep - 11:58:01 10° N 12:01:19 19° NE 12:04:58 10° E daylight
01 Sep - 13:44:05 10° WNW 13:48:59 66° NNE 13:54:57 10° E daylight
01 Sep - 15:32:02 10° W 15:37:36 81° S 15:44:22 10° E daylight
01 Sep - 17:20:16 10° W 17:26:29 79° NNW 17:33:52 10° ENE daylight
01 Sep - 19:08:55 10° W 19:15:07 37° NNW 19:22:03 10° NNE visible
01 Sep - 21:01:18 10° WNW 21:03:13 11° NW 21:05:09 10° NNW visible
02 Sep - 11:55:10 10° NNW 11:58:53 25° NE 12:03:03 10° E daylight
02 Sep - 13:41:50 10° WNW 13:46:43 76° NNE 13:52:39 10° E daylight
02 Sep - 15:29:52 10° W 15:35:22 81° S 15:42:04 10° E daylight
02 Sep - 17:18:05 10° W 17:24:11 70° NNW 17:31:26 10° ENE daylight
02 Sep - 19:06:55 10° W 19:12:42 30° NNW 19:19:08 10° NNE visible
03 Sep - 11:52:31 10° NNW 11:56:29 31° NNE 12:00:59 10° E daylight
03 Sep - 13:39:37 10° WNW 13:44:28 85° NNE 13:50:21 10° E daylight
03 Sep - 15:27:43 10° W 15:33:09 83° S 15:39:46 10° E daylight
03 Sep - 17:15:54 10° W 17:21:52 61° NNW 17:28:57 10° ENE daylight
03 Sep - 19:05:02 10° W 19:10:16 24° NW 19:16:01 10° NNE visible
04 Sep - 11:49:59 10° NW 11:54:07 39° NNE 11:58:50 10° E daylight
04 Sep - 13:37:26 10° W 13:42:15 88° S 13:48:03 10° E daylight
04 Sep - 15:25:32 10° W 15:30:55 87° S 15:37:27 10° E daylight
04 Sep - 17:13:45 10° W 17:19:32 51° NNW 17:26:22 10° NE daylight
04 Sep - 19:03:23 10° WNW 19:07:49 19° NW 19:12:37 10° N visible
05 Sep - 10:03:05 10° NNE 10:04:22 11° NE 10:05:40 10° ENE daylight
05 Sep - 11:47:34 10° NW 11:51:47 49° NNE 11:56:38 10° E daylight
05 Sep - 13:35:16 10° W 13:40:02 83° S 13:45:45 10° E daylight
05 Sep - 15:23:21 10° W 15:28:40 87° NNW 15:35:07 10° ENE daylight
05 Sep - 17:11:38 10° W 17:17:11 42° NNW 17:23:42 10° NE daylight
05 Sep - 19:02:10 10° WNW 19:05:21 14° NW 19:08:44 10° N visible
06 Sep - 09:59:24 10° N 10:01:55 15° NE 10:04:32 10° ENE daylight
06 Sep - 11:45:13 10° WNW 11:49:30 60° NNE 11:54:23 10° E daylight
06 Sep - 13:33:06 10° W 13:37:49 80° S 13:43:27 10° E daylight
06 Sep - 15:21:10 10° W 15:26:24 78° NNW 15:32:44 10° ENE daylight
06 Sep - 17:09:34 10° W 17:14:49 34° NNW 17:20:54 10° NNE daylight
07 Sep - 09:56:22 10° NNW 09:59:30 21° NNE 10:02:48 10° E daylight
07 Sep - 11:42:56 10° WNW 11:47:14 72° NNE 11:52:07 10° E daylight
07 Sep - 13:30:56 10° W 13:35:37 79° S 13:41:10 10° E daylight
07 Sep - 15:18:59 10° W 15:24:07 68° NNW 15:30:19 10° ENE daylight
07 Sep - 17:07:37 10° W 17:12:26 27° NNW 17:17:56 10° NNE daylight
